EW3608 Weather Reports


Display with metric or nautical units.
time (UTC)temp
F
wind
direction
speed
MPH
gust
MPH
rain 1hr
in
rain 24hr
in
rain mn
in
humidity
%
barometer
mb
20240224051630 33 0 0.0 0.0 0.00 0.00 0.00 47 1020.8
20240224050731 34 0 0.0 2.0 0.00 0.00 0.00 45 1020.8
20240224045830 34 268 1.0 4.0 0.00 0.00 0.00 45 1020.9
20240224045144 34 268 1.0 3.0 0.00 0.00 0.00 47 1021.1
20240224044241 33 268 1.0 3.0 0.00 0.00 0.00 48 1021.1
20240224043130 33 268 1.0 3.0 0.00 0.00 0.00 47 1021.1
20240224042441 33 268 1.0 3.0 0.00 0.00 0.00 47 1021.2
20240224041331 35 268 0.0 2.0 0.00 0.00 0.00 44 1021.3
20240224040430 36 268 0.0 1.0 0.00 0.00 0.00 42 1021.2
20240224035531 37 0 0.0 1.0 0.00 0.00 0.00 40 1021.2
20240224034630 38 268 0.0 2.0 0.00 0.00 0.00 38 1021.2
20240224033942 38 268 1.0 3.0 0.00 0.00 0.00 37 1021.3
20240224033040 38 268 0.0 1.0 0.00 0.00 0.00 35 1021.3
20240224032142 39 268 0.0 1.0 0.00 0.00 0.00 34 1021.5
20240224031239 40 0 0.0 0.0 0.00 0.00 0.00 32 1021.5
20240224030342 40 268 0.0 1.0 0.00 0.00 0.00 31 1021.4
20240224025230 40 268 0.0 2.0 0.00 0.00 0.00 30 1021.3
20240224024330 40 268 0.0 2.0 0.00 0.00 0.00 30 1021.2
20240224023430 40 268 0.0 1.0 0.00 0.00 0.00 28 1021.2
20240224022741 40 268 0.0 1.0 0.00 0.00 0.00 29 1021.2
20240224021630 41 268 0.0 1.0 0.00 0.00 0.00 28 1021.1
20240224020730 42 268 0.0 2.0 0.00 0.00 0.00 28 1021.2
20240224020043 42 0 0.0 0.0 0.00 0.00 0.00 26 1021.1
20240224014930 43 268 0.0 3.0 0.00 0.00 0.00 26 1021.1
20240224014031 43 268 2.0 4.0 0.00 0.00 0.00 26 1021.2
20240224013340 44 269 2.0 7.0 0.00 0.00 0.00 26 1021.1
20240224012230 44 269 2.0 5.0 0.00 0.00 0.00 25 1021.1
20240224011540 44 269 2.0 7.0 0.00 0.00 0.00 26 1021.1
20240224010431 44 272 3.0 8.0 0.00 0.00 0.00 25 1021.0
20240224005531 45 252 2.0 8.0 0.00 0.00 0.00 25 1020.9
20240224004842 45 247 2.0 6.0 0.00 0.00 0.00 25 1020.9
20240224003730 46 245 4.0 10.0 0.00 0.00 0.00 25 1020.9
20240224003042 47 240 4.0 10.0 0.00 0.00 0.00 24 1020.9
20240224001930 48 231 3.0 8.0 0.00 0.00 0.00 22 1020.8
20240224001241 48 235 4.0 8.0 0.00 0.00 0.00 22 1020.9
20240224000130 50 239 4.0 8.0 0.00 0.00 0.00 21 1020.7
20240223235441 50 229 4.0 10.0 0.00 0.00 0.00 22 1020.7
20240223234330 51 232 4.0 9.0 0.00 0.00 0.00 21 1020.6
20240223233641 52 238 5.0 13.0 0.00 0.00 0.00 21 1020.6
20240223232743 52 236 4.0 9.0 0.00 0.00 0.00 20 1020.6
20240223231840 52 222 5.0 11.0 0.00 0.00 0.00 20 1020.6
20240223230731 52 226 6.0 14.0 0.00 0.00 0.00 21 1020.7
20240223230040 52 224 7.0 14.0 0.00 0.00 0.00 20 1020.6
20240223225142 52 226 6.0 14.0 0.00 0.00 0.00 21 1020.6
20240223224030 52 232 7.0 16.0 0.00 0.00 0.00 22 1020.7
20240223223342 52 227 8.0 16.0 0.00 0.00 0.00 21 1020.6
20240223222230 52 229 7.0 16.0 0.00 0.00 0.00 21 1020.6
20240223221542 53 244 6.0 14.0 0.00 0.00 0.00 21 1020.7
20240223220430 54 260 6.0 14.0 0.00 0.00 0.00 21 1020.5
20240223215741 54 259 5.0 14.0 0.00 0.00 0.00 17 1020.5
20240223214630 54 259 5.0 14.0 0.00 0.00 0.00 21 1020.5
20240223213941 54 262 4.0 12.0 0.00 0.00 0.00 20 1020.4
20240223212830 54 306 4.0 12.0 0.00 0.00 0.00 17 1020.5
20240223211930 54 319 4.0 11.0 0.00 0.00 0.00 15 1020.5
20240223211243 54 282 4.0 9.0 0.00 0.00 0.00 18 1020.6
20240223210130 54 313 3.0 10.0 0.00 0.00 0.00 17 1020.7
20240223205443 54 318 4.0 8.0 0.00 0.00 0.00 16 1020.7
20240223204330 53 360 4.0 9.0 0.00 0.00 0.00 19 1020.9
20240223203431 53 14 2.0 8.0 0.00 0.00 0.00 18 1021.0
20240223202530 52 311 4.0 18.0 0.00 0.00 0.00 20 1021.1
20240223201842 51 40 2.0 7.0 0.00 0.00 0.00 21 1021.1
20240223200940 51 27 4.0 9.0 0.00 0.00 0.00 24 1021.5
20240223195831 51 104 2.0 6.0 0.00 0.00 0.00 24 1021.4
20240223194930 50 104 3.0 8.0 0.00 0.00 0.00 25 1021.5
20240223194030 50 105 4.0 9.0 0.00 0.00 0.00 26 1021.6
20240223193339 49 82 5.0 9.0 0.00 0.00 0.00 28 1021.7
20240223192230 49 75 5.0 12.0 0.00 0.00 0.00 29 1021.9
20240223191544 49 74 5.0 12.0 0.00 0.00 0.00 28 1022.1
20240223190431 48 50 5.0 9.0 0.00 0.00 0.00 30 1022.3
20240223185530 49 85 3.0 9.0 0.00 0.01 0.00 27 1022.4
20240223184630 48 65 3.0 9.0 0.00 0.01 0.00 30 1022.5
20240223183943 48 58 3.0 8.0 0.00 0.01 0.00 30 1022.6
20240223182830 48 53 4.0 8.0 0.00 0.01 0.00 32 1022.6
20240223181930 48 71 3.0 8.0 0.00 0.01 0.00 31 1022.7
20240223181030 47 61 3.0 10.0 0.00 0.01 0.00 30 1022.9
20240223180342 48 37 4.0 10.0 0.00 0.01 0.00 33 1023.0
20240223175230 48 343 4.0 12.0 0.00 0.01 0.00 30 1023.1
20240223174330 48 290 5.0 11.0 0.00 0.01 0.00 26 1023.0
20240223173430 48 316 5.0 11.0 0.00 0.01 0.00 26 1023.0
20240223172530 47 320 6.0 16.0 0.00 0.01 0.00 27 1023.0
20240223171839 47 318 5.0 12.0 0.00 0.01 0.00 28 1023.1
20240223170941 47 309 5.0 15.0 0.00 0.01 0.00 27 1023.2
20240223170044 46 292 6.0 19.0 0.00 0.01 0.00 28 1023.3
20240223165141 46 286 5.0 13.0 0.00 0.01 0.00 30 1023.3
20240223164244 46 291 6.0 14.0 0.00 0.01 0.00 29 1023.4
20240223163131 46 308 6.0 18.0 0.00 0.01 0.00 30 1023.4
20240223162230 45 306 5.0 14.0 0.00 0.01 0.00 30 1023.4
20240223161330 45 335 6.0 13.0 0.00 0.01 0.00 28 1023.6
20240223160430 45 340 4.0 12.0 0.00 0.01 0.00 29 1023.6
20240223155530 44 282 3.0 12.0 0.00 0.01 0.00 31 1023.5
20240223154843 44 279 2.0 10.0 0.00 0.01 0.00 32 1023.5
20240223153730 43 292 3.0 14.0 0.00 0.01 0.00 34 1023.5
20240223153042 43 305 5.0 14.0 0.00 0.01 0.00 34 1023.6
20240223151930 42 249 5.0 10.0 0.00 0.01 0.00 35 1023.6
20240223151030 42 326 3.0 13.0 0.00 0.01 0.00 34 1023.4
20240223150130 42 342 2.0 9.0 0.00 0.01 0.00 34 1023.6
20240223145230 41 258 2.0 9.0 0.00 0.01 0.00 35 1023.6
20240223144539 41 272 2.0 10.0 0.00 0.01 0.00 35 1023.5
20240223143641 40 274 1.0 5.0 0.00 0.01 0.00 36 1023.5
20240223142530 39 271 2.0 8.0 0.00 0.01 0.00 38 1023.4
20240223141841 39 294 1.0 6.0 0.00 0.01 0.00 39 1023.3
20240223140731 39 290 4.0 8.0 0.00 0.01 0.00 40 1023.0
20240223135830 39 269 5.0 13.0 0.00 0.01 0.00 40 1023.0
20240223135143 38 266 2.0 8.0 0.00 0.01 0.00 41 1023.1
20240223134031 39 46 3.0 13.0 0.00 0.01 0.00 40 1022.6
20240223133130 38 342 2.0 9.0 0.00 0.01 0.00 40 1022.4
20240223132230 38 349 3.0 6.0 0.00 0.01 0.00 40 1022.6
20240223131542 37 274 2.0 6.0 0.00 0.01 0.00 41 1022.3
20240223130430 38 261 1.0 4.0 0.00 0.01 0.00 40 1022.3
20240223125530 39 248 3.0 12.0 0.00 0.01 0.00 39 1022.3
20240223124630 38 246 2.0 6.0 0.00 0.01 0.00 41 1022.5
20240223123942 39 234 3.0 13.0 0.00 0.01 0.00 39 1022.2
20240223122831 38 295 3.0 12.0 0.00 0.01 0.00 41 1022.3
20240223122141 38 321 3.0 12.0 0.00 0.01 0.00 41 1022.3
20240223121030 37 7 2.0 7.0 0.00 0.01 0.00 43 1022.1
20240223120131 38 243 3.0 12.0 0.00 0.01 0.00 41 1022.3
20240223115444 37 213 1.0 4.0 0.00 0.01 0.00 43 1022.3
20240223114330 34 207 0.0 5.0 0.00 0.01 0.00 48 1022.2
20240223113430 35 207 1.0 4.0 0.00 0.01 0.00 48 1022.2
20240223112740 34 221 1.0 10.0 0.00 0.01 0.00 49 1022.1
20240223111843 32 258 2.0 4.0 0.00 0.01 0.00 54 1022.3
20240223110730 33 258 2.0 5.0 0.00 0.01 0.00 53 1022.2
20240223105830 29 258 1.0 5.0 0.00 0.01 0.00 62 1022.3
20240223105140 30 258 0.0 3.0 0.00 0.01 0.00 62 1022.3
20240223104242 30 258 1.0 3.0 0.00 0.01 0.00 63 1022.3
20240223103130 28 259 2.0 6.0 0.00 0.01 0.00 65 1022.3
20240223102442 28 259 2.0 6.0 0.00 0.01 0.00 67 1022.4
20240223101330 28 259 1.0 3.0 0.00 0.01 0.00 67 1022.6
20240223100642 28 259 1.0 3.0 0.00 0.01 0.00 68 1022.5
20240223095530 28 259 1.0 3.0 0.00 0.01 0.00 70 1022.6
20240223094631 28 259 0.0 2.0 0.00 0.01 0.00 69 1022.6
20240223093731 28 259 1.0 3.0 0.00 0.01 0.00 69 1022.7
20240223093041 29 259 0.0 2.0 0.00 0.01 0.00 68 1022.6
20240223092143 29 259 1.0 3.0 0.00 0.01 0.00 67 1022.8
20240223091030 29 259 1.0 4.0 0.00 0.01 0.00 65 1022.9
20240223090130 30 259 1.0 3.0 0.00 0.01 0.00 65 1022.9
20240223085440 29 259 0.0 3.0 0.00 0.01 0.00 65 1022.9
20240223084543 30 259 0.0 3.0 0.00 0.01 0.00 65 1022.8
20240223083430 30 259 0.0 2.0 0.00 0.01 0.00 63 1022.9
20240223082742 31 259 1.0 2.0 0.00 0.01 0.00 62 1022.8
20240223081630 32 259 0.0 4.0 0.00 0.01 0.00 60 1022.7
20240223080730 32 259 1.0 3.0 0.00 0.01 0.00 61 1022.7
20240223075830 32 259 1.0 3.0 0.00 0.01 0.00 61 1022.7
20240223074930 31 259 1.0 3.0 0.00 0.01 0.00 63 1022.9
20240223074239 31 259 1.0 3.0 0.00 0.01 0.00 64 1022.7
20240223073130 30 259 1.0 4.0 0.00 0.01 0.00 66 1022.6
20240223072444 30 259 1.0 4.0 0.00 0.01 0.00 66 1022.7
20240223071541 30 259 1.0 3.0 0.00 0.01 0.00 66 1022.5
20240223070644 30 259 1.0 4.0 0.00 0.01 0.00 67 1022.5
20240223065741 30 259 1.0 4.0 0.00 0.01 0.01 68 1022.5
20240223064631 30 259 0.0 4.0 0.00 0.01 0.01 67 1022.3
20240223063730 31 259 0.0 3.0 0.00 0.01 0.01 65 1022.4
20240223063043 31 259 1.0 2.0 0.00 0.01 0.01 64 1022.4
20240223062140 32 259 1.0 5.0 0.00 0.01 0.01 63 1022.3
20240223061243 31 261 1.0 4.0 0.00 0.01 0.01 66 1022.5
20240223060130 31 261 1.0 3.0 0.00 0.01 0.01 68 1022.5
20240223055442 31 261 1.0 4.0 0.00 0.01 0.01 66 1022.6
20240223054539 30 261 1.0 4.0 0.00 0.01 0.01 68 1022.5
20240223053430 31 261 1.0 3.0 0.00 0.01 0.01 67 1022.5
20240223052530 32 261 1.0 3.0 0.00 0.01 0.01 66 1022.6